Regional Weather Roundup
Issued by NWS

Home | Current Version | Previous Version | Text Only | Print | Product List | Glossary Off
Versions: 1 2 3 4 5 6 7 8 9 10 11 12 13 14 15 16 17 18 19 20 21 22 23 24 25 26 27 28 29 30 31 32 33 34 35 36 37 38 39 40 41 42 43 44 45 46 47 48 49 50

000
ASUS43 KIND 220409
RWRIN

WEATHER ROUNDUP FOR INDIANA
NATIONAL WEATHER SERVICE INDIANAPOLIS IN
1200 AM EDT TUE AUG 22 2017

NOTE: "FAIR" INDICATES FEW OR NO CLOUDS BELOW 12,000 FEET WITH NO
SIGNIFICANT WEATHER AND/OR OBSTRUCTIONS TO VISIBILITY.

* - STATION DOES NOT REPORT WEATHER SUCH AS PRECIPITATION OR FOG.

+ - STATION NOT QUALITY CONTROLLED BY THE NATIONAL WEATHER SERVICE.
    USE DATA WITH CAUTION...ESPECIALLY DEWPOINT AND RELATIVE
    HUMIDITY OBSERVATIONS.

INZ001>003-010>013-019-020-220500-
NORTHWEST INDIANA

CITY           SKY/WX    TMP DP  RH WIND       PRES   REMARKS
GARY /AIRPORT/ CLOUDY    79  71  76 S7        29.94F
KNOX *+        PTCLDY    72  68  88 SW5       29.97F
LA PORTE +     CLEAR     73  70  92 SW6       29.97F
MICHIGAN CITY+ PTCLDY    75  68  78 S13       29.96F
MONTICELLO +   CLOUDY    73  72  95 S7        29.99F
RENSSELAER +   MOCLDY    72  64  78 S9        29.98F
VALPARAISO     PTCLDY    75  69  81 SW8       29.97F

$$

LMZ046-743>745-220500-
SOUTHERN LAKE MICHIGAN

STATION/POSITION TIME  TEMP    WIND        PRES    WAVE
                       AIR SEA DIR/SP/G            HT
                 (UTC) (F)     (DEG/KT/KT) (MB)    (FT)
BURNS HARBOR     0340   77     190/ 14/ 19 1014.2F
MICHIGAN CITY    0340   77     180/ 14/ 16   N/A
5NW MICH CITY    0400   77 75  210/ 16/ 19   N/A     1

$$

INZ004-005-014>016-021>024-220500-
NORTH CENTRAL INDIANA

CITY           SKY/WX    TMP DP  RH WIND       PRES   REMARKS
GOSHEN         PTCLDY    75  68  78 SW10      29.98F
LOGANSPORT +   CLOUDY    72  68  88 S7        30.01F
PERU/GRISSOM   PTCLDY    72  71  95 S7        30.00F
ROCHESTER +    CLOUDY    77  70  78 S9        30.00F
SOUTH BEND     PTCLDY    75  73  93 SW10      29.96F
WARSAW +       CLOUDY    73  70  88 SW5       30.00S

$$

INZ006>009-017-018-025>027-220500-
NORTHEAST INDIANA

CITY           SKY/WX    TMP DP  RH WIND       PRES   REMARKS
AUBURN +       PTCLDY    77  68  73 SW7       30.01F
FORT WAYNE     MOCLDY    73  69  87 SW8       30.01F
HUNTINGTON +   CLOUDY    73  72  95 S5        30.01F

$$

INZ028-029-035-036-043>045-051>053-220500-
WEST CENTRAL INDIANA

CITY           SKY/WX    TMP DP  RH WIND       PRES   REMARKS
GREENCASTLE +  CLEAR     68  68 100 CALM      30.04F
LAFAYETTE      CLOUDY    73  70  90 SW3       30.00F
TERRE HAUTE    CLEAR     71  68  90 S6        30.02F

$$

INZ030>032-037>040-046>048-054>057-064-065-220500-
CENTRAL INDIANA

CITY           SKY/WX    TMP DP  RH WIND       PRES   REMARKS
CP ATTERBURY + PTCLDY    72  70  94 CALM      30.06S
FRANKFORT +    CLOUDY    73  70  92 CALM      30.04F
GREENWOOD *+   CLOUDY   N/A N/A N/A S5        30.05F
INDIANAPOLIS   CLOUDY    74  71  91 S8        30.03F
-EAGLE CREEK   CLEAR     74  70  87 S3        30.03F
KOKOMO +       PTCLDY    72  69  90 S7        30.02F
MARION +       CLEAR     72  70  94 S6        30.03F
MT COMFORT *+  CLEAR     73  70  88 S5        30.06S
SHELBYVILLE    PTCLDY    75  69  81 S5        30.05F
ZIONSVILLE +   CLEAR     72  70  94 S7        30.04F

$$

INZ033-034-041-042-049-050-058-059-220500-
EAST CENTRAL INDIANA

CITY           SKY/WX    TMP DP  RH WIND       PRES   REMARKS
MUNCIE         PTCLDY    77  68  73 S9        30.04F
RICHMOND +     PTCLDY    70  70 100 S6        30.09F

$$

INZ060-061-067>069-081>083-085>088-220500-
SOUTHWEST INDIANA

CITY           SKY/WX    TMP DP  RH WIND       PRES   REMARKS
EVANSVILLE     PTCLDY    75  71  87 SW7       30.05F
HUNTINGBURG +  PTCLDY    72  71  97 CALM      30.06F
WASHINGTON +   PTCLDY    70  68  94 MISG      30.04F FOG

$$

INZ062-063-066-070>080-084-089>092-220500-
SOUTH CENTRAL AND SOUTHEAST INDIANA

CITY           SKY/WX    TMP DP  RH WIND       PRES   REMARKS
BEDFORD +      PTCLDY    73  70  88 CALM      30.05F
BLOOMINGTON    PTCLDY    74  69  85 S3        30.05F
MADISON *+     CLOUDY    73  70  88 CALM      30.11S
NORTH VERNON + CLOUDY    73  70  88 S3        30.08S
SEYMOUR +      MOCLDY    77  70  78 CALM      30.06F

$$





USA.gov is the U.S. government's official web portal to all federal, state and local government web resources and services.